Погода в Серниках

Украина / Ровненская область     51°49′17″N   26°14′09″E
темп.,
°C
ветер,
м/с
пор.,
м/с
влажн.,
%
обл.,
%
осадки,
мм/ч
давл.,
гПа
погр.,
м
16 мая, вс
вс1600:00+10юз11935 0.0 101010
03:00+9ю22935 0.0 101114
06:00+9ююв229255 0.0 101130
09:00+15юв346598 0.0 1011423
12:00+19юв455281 0.0 10101181
15:00+22ююв4648100 0.0 10092086
18:00+19ююв586694 0.3 1008969
21:00+14ю71590100 3.9 1008560
17 мая, пн
пн1700:00+12вюв3494100 0.7 100883
03:00+13ююв31094100 0.9 1007281
06:00+12ю239777 0.3 100798
09:00+15з238246 0.3 1008433
12:00+21з115876 0.0 10061253
15:00+20сз2161100 0.7 10051049
18:00+19ссв2374100 1.7 1003340
21:00+15с2290100 3.1 100314
18 мая, вт
вт1800:00+14ссз2394100 0.4 100149
03:00+12с2298100 0.6 100047
06:00+13сз1299100 0.6 99959
09:00+15зсз238899 0.7 999469
12:00+17зсз2380100 1.3 999789
15:00+11з51195100 1.8 1002817
18:00+11з61192100 4.4 1002843
21:00+10з61292100 4.7 10021043
19 мая, ср
ср1900:00+10з71493100 0.5 1002982
03:00+9зюз71495100 4.0 1002891
06:00+8з101792100 5.1 10021411
09:00+8зсз91594100 22.6 10041288
12:00+9з71495100 4.8 1007927
15:00+10зсз61290100 6.3 10091005
18:00+12зсз61085100 0.9 10101119
21:00+9з399219 1.3 1012254
20 мая, чт
чт2000:00+7з39961 0.0 1014221
03:00+6з38975 0.0 1015169
06:00+6зюз379736 0.0 1016148
09:00+11з368099 0.0 1017445
12:00+16зюз4652100 0.1 10171923
15:00+14зюз4765100 0.4 1016346
18:00+15з46665 0.9 10161224
21:00+10зюз22895 1.6 101729